AirNav   Duncan Aviation - Near you to keep you flying
 
 802 users online  

2FA6 Freeflight International Airport
Coleman, Florida, USA

GOING TO COLEMAN?


FAA INFORMATION EFFECTIVE 09 SEPTEMBER 2021

Location

FAA Identifier: 2FA6
Lat/Long: 28-48-39.9560N 082-03-55.3080W
28-48.665933N 082-03.921800W
28.8110989,-82.0653633
(estimated)
Elevation: 55 ft. / 17 m (estimated)
Variation: 02W (1985)
Time zone: UTC -4 (UTC -5 during Standard Time)
Zip code: 33521

Airport Operations

Airport use: Private use. Permission required prior to landing
Activation date: 12/1973
Control tower: no
ARTCC: JACKSONVILLE CENTER
FSS: SAINT PETERSBURG FLIGHT SERVICE STATION
Attendance: CONTINUOUS
Wind indicator: yes
Segmented circle: no

Airport Communications

UNICOM: 122.7
WX AWOS-3 at INF (13 nm W): 119.975 (352-560-6012)
WX ASOS at LEE (14 nm E): PHONE 352-787-1565

Nearby radio navigation aids

VOR radial/distance  VOR name  Freq  Var
OCFr159/23.6OCALA VORTAC113.7000E

Airport Services

Runway Information

Runway 2/20

Dimensions: 4100 x 100 ft. / 1250 x 30 m
Surface: turf
RUNWAY 2  RUNWAY 20
Traffic pattern: leftleft

Airport Ownership and Management from official FAA records

Ownership: Privately-owned
Owner: FREEFLIGHT INTL INC
PO BOX 600, 1511 TAYLOR AVE.
COLEMAN, FL 33521-0600
Phone 352-748-6629
Manager: FRANK B. ARENAS
FREEFLIGHT INTL INC, 1511 TAYLOR AVE.
COLEMAN, FL 33521-0600
Phone 352-748-6629
ADDNL ADS:1511 TAYLOR AVE COLEMAN, FL 33521 - 0600

Airport Operational Statistics

Aircraft based on the field: 6
Single engine airplanes: 5
Gliders airplanes: 1
    

Additional Remarks

FOR CD CTC JACKSONVILLE APCH AT 904-741-0284.

Instrument Procedures

There are no published instrument procedures at 2FA6.

Some nearby airports with instrument procedures:

KINF - Inverness Airport (13 nm W)
KLEE - Leesburg International Airport (14 nm E)
X35 - Marion County Airport (22 nm NW)
X23 - Umatilla Municipal Airport (23 nm E)
KOCF - Ocala International Airport-Jim Taylor Field (23 nm N)
 
Loc | Ops | Rwys | IFR | FBO | Links
Com | Nav | Svcs | Stats | Notes


 
Area around 2FA6 (Freeflight International Airport)
 
Road maps at: MapQuest Bing Google
 
Aerial photo
WARNING: Photo may not be current or correct
Aerial photo of 2FA6 (Freeflight International Airport)
Do you have a better or more recent aerial photo of Freeflight International Airport that you would like to share? If so, please send us your photo.

 
Sectional chart

 
Airport distance calculator
Flying to Freeflight International Airport? Find the distance to fly.

From to 2FA6

Sunrise and sunset
Times for 21-Sep-2021
 Local
(UTC-4)
 Zulu
(UTC)
Morning civil twilight06:5410:54
Sunrise07:1711:17
Sunset19:2623:26
Evening civil twilight19:4923:49

Current date and time
Zulu (UTC)  21-Sep-2021 11:51:05
Local (UTC-4)  21-Sep-2021 07:51:05
 
METAR
KLEE 
13nm E 
211053Z 00000KT 10SM CLR 24/23 A3003 RMK AO2 SLP169 T02390228
KINF 
13nm W 
211055Z AUTO 00000KT 5SM BR SCT001 22/22 A3004 RMK AO2
KOCF 
23nm N 
211123Z 00000KT 10SM OVC002 23/23 A3005 RMK AO2
TAF
KLEE 
13nm E 
210542Z 2106/2206 VRB04KT P6SM FEW020 SCT120 FM211500 17006KT P6SM SCT025 SCT050 FM212000 12007KT P6SM VCTS SCT030CB SCT120 FM220000 VRB03KT P6SM FEW035 SCT120
NOTAMs
Click for the latest NOTAMs
NOTAMs are issued by the DoD/FAA and will open in a separate window not controlled by AirNav.

 

 
 

Aviation Businesses, Services, and Facilities

  
 Business Name 
 
 Contact 
 
 Services / Description 
 
Distance
 
Comments
  
FreeFlight Airport 352-748-6629
[web site]
[email]
Airport management, Aircraft parking (ramp or tiedown), Hangars, Restrooms, Showers, Camping on site, Residence

More info about FreeFlight Airport
on airport  
   write
 

Would you like to see your business listed on this page?

 If your business provides an interesting product or service to pilots, flight crews, aircraft, or users of the Freeflight International Airport, you should consider listing it here.  To start the listing process, click on the button below
 
Add a business
 

Other Pages about Freeflight International Airport

Update a link
 
Copyright © AirNav, LLC. All rights reserved. Privacy Policy  Contact